Location: Bow
(51.5261°N, 0.0167°W)
Time: 13:26:36
(UTC+00:00)

ISS - Pass Details

Date: 01 July 2021
Orbit: 419 x 421 km, 51.6° (Epoch: 31 July)

Event Time Altitude Azimuth Distance (km) Brightness Sun altitude
Exits shadow 02:15:00 11° 176° (S) 1,458 -1.5 -10.0°
Maximum altitude 02:16:54 15° 140° (SE) 1,217 -1.6 -9.9°
Drops below altitude 10° 02:18:57 10° 103° (ESE) 1,502 -0.7 -9.7°
Sets 02:21:39 0° 80° (E) 2,370 0.7 -9.5°
